WZZ61 EDDL-EDDN

Flight info

Callsign WZZ61
Flight time 0h 48m
Altitude 33000
Route NUDGO6T/23L NUDGO Z858 ESADU P12 WRB Z190 VELIS T194 DODAS DODAS1V
Aircraft A321/M-SDE3FGHIRWY/LB1

Departure

Time 2026-05-04 18:52
Airport Düsseldorf Airport (EDDL)

Arrival

Time 2026-05-04 19:40
Airport Nuremberg Airport (EDDN)
Time Latitude Longitude Altitude Speed Heading
2026-05-04 17:54 51.27739 6.76156 128 ft 0 kts 159°
2026-05-04 18:35 51.27740 6.76155 130 ft 2 kts 159°
2026-05-04 18:36 51.27764 6.76141 130 ft 4 kts 164°
2026-05-04 18:36 51.27790 6.76133 126 ft 4 kts 182°
2026-05-04 18:36 51.27813 6.76138 130 ft 4 kts 206°
2026-05-04 18:36 51.27832 6.76164 128 ft 4 kts 245°
2026-05-04 18:37 51.27839 6.76205 130 ft 4 kts 264°
2026-05-04 18:37 51.27840 6.76232 127 ft 2 kts 269°
2026-05-04 18:37 51.27840 6.76235 130 ft 0 kts 269°
2026-05-04 18:39 51.27840 6.76234 130 ft 1 kts 269°
2026-05-04 18:40 51.27840 6.76210 130 ft 3 kts 270°
2026-05-04 18:40 51.27841 6.76149 129 ft 8 kts 271°
2026-05-04 18:40 51.27865 6.76063 129 ft 10 kts 326°
2026-05-04 18:40 51.27935 6.76049 127 ft 9 kts 359°
2026-05-04 18:41 51.27969 6.76048 130 ft 0 kts 358°
2026-05-04 18:41 51.27973 6.76047 126 ft 1 kts 358°
2026-05-04 18:41 51.27990 6.76047 125 ft 4 kts 359°
2026-05-04 18:41 51.28022 6.76047 130 ft 6 kts
2026-05-04 18:42 51.28076 6.76043 130 ft 9 kts 346°
2026-05-04 18:42 51.28139 6.76050 127 ft 11 kts 33°
2026-05-04 18:42 51.28197 6.76163 128 ft 16 kts 52°
2026-05-04 18:42 51.28277 6.76331 122 ft 22 kts 53°
2026-05-04 18:43 51.28379 6.76542 121 ft 25 kts 52°
2026-05-04 18:43 51.28484 6.76764 123 ft 25 kts 53°
2026-05-04 18:43 51.28588 6.76983 125 ft 25 kts 52°
2026-05-04 18:43 51.28692 6.77203 126 ft 25 kts 53°
2026-05-04 18:44 51.28800 6.77428 128 ft 26 kts 52°
2026-05-04 18:44 51.28873 6.77580 124 ft 26 kts 52°
2026-05-04 18:44 51.29021 6.77891 129 ft 27 kts 53°
2026-05-04 18:44 51.29110 6.78078 133 ft 12 kts 52°
2026-05-04 18:45 51.29150 6.78162 135 ft 8 kts 52°
2026-05-04 18:45 51.29193 6.78207 137 ft 8 kts 15°
2026-05-04 18:45 51.29249 6.78197 138 ft 5 kts 334°
2026-05-04 18:45 51.29257 6.78189 138 ft 0 kts 327°
2026-05-04 18:50 51.29259 6.78188 138 ft 1 kts 327°
2026-05-04 18:51 51.29277 6.78167 140 ft 5 kts 323°
2026-05-04 18:51 51.29311 6.78115 143 ft 9 kts 303°
2026-05-04 18:51 51.29277 6.77961 141 ft 28 kts 233°
2026-05-04 18:51 51.28987 6.77359 127 ft 105 kts 232°
2026-05-04 18:52 51.28418 6.76168 182 ft 157 kts 231°
2026-05-04 18:52 51.27777 6.74787 855 ft 156 kts 230°
2026-05-04 18:52 51.27128 6.73384 1460 ft 160 kts 230°
2026-05-04 18:52 51.26411 6.71855 1699 ft 183 kts 231°
2026-05-04 18:53 51.25602 6.70127 1926 ft 205 kts 231°
2026-05-04 18:53 51.24698 6.68191 2157 ft 231 kts 232°
2026-05-04 18:53 51.23746 6.66150 2598 ft 250 kts 232°
2026-05-04 18:53 51.22549 6.64168 3296 ft 256 kts 210°
2026-05-04 18:54 51.20836 6.63462 4068 ft 259 kts 179°
2026-05-04 18:54 51.19049 6.63669 4903 ft 262 kts 175°
2026-05-04 18:54 51.17269 6.63980 5701 ft 264 kts 174°
2026-05-04 18:54 51.15456 6.64531 6468 ft 268 kts 158°
2026-05-04 18:55 51.13943 6.66275 7187 ft 275 kts 131°
2026-05-04 18:55 51.13107 6.72248 8789 ft 291 kts 90°
2026-05-04 18:55 51.13229 6.75482 9560 ft 295 kts 90°
2026-05-04 18:56 51.13367 6.78762 10214 ft 302 kts 90°
2026-05-04 18:56 51.13509 6.82233 10406 ft 325 kts 90°
2026-05-04 18:56 51.13656 6.85960 10553 ft 348 kts 89°
2026-05-04 18:56 51.13804 6.89857 10855 ft 363 kts 89°
2026-05-04 18:57 51.13953 6.93777 11448 ft 367 kts 89°
2026-05-04 18:57 51.14107 6.97874 12114 ft 371 kts 89°
2026-05-04 18:57 51.14250 7.01733 12740 ft 374 kts 89°
2026-05-04 18:57 51.14400 7.05885 13410 ft 377 kts 89°
2026-05-04 18:58 51.14547 7.10022 14038 ft 381 kts 89°
2026-05-04 18:58 51.14694 7.14263 14628 ft 384 kts 89°
2026-05-04 18:58 51.14843 7.18541 15139 ft 391 kts 89°
2026-05-04 18:58 51.14994 7.22881 15715 ft 394 kts 89°
2026-05-04 18:59 51.15139 7.27121 16269 ft 397 kts 89°
2026-05-04 18:59 51.15287 7.31532 16847 ft 401 kts 89°
2026-05-04 18:59 51.15434 7.35983 17430 ft 404 kts 89°
2026-05-04 18:59 51.15569 7.40118 17839 ft 406 kts 89°
2026-05-04 19:00 51.15926 7.44608 18192 ft 411 kts 80°
2026-05-04 19:00 51.16683 7.48644 18423 ft 414 kts 71°
2026-05-04 19:00 51.17748 7.52925 18652 ft 416 kts 70°
2026-05-04 19:00 51.18811 7.57210 18872 ft 418 kts 70°
2026-05-04 19:01 51.19830 7.61322 18972 ft 419 kts 70°
2026-05-04 19:01 51.20896 7.65652 18995 ft 420 kts 70°
2026-05-04 19:01 51.21954 7.69992 19092 ft 419 kts 70°
2026-05-04 19:01 51.22993 7.74235 19437 ft 422 kts 70°
2026-05-04 19:02 51.24058 7.78609 19795 ft 424 kts 70°
2026-05-04 19:02 51.25118 7.82987 20116 ft 428 kts 70°
2026-05-04 19:02 51.26205 7.87481 20364 ft 429 kts 70°
2026-05-04 19:02 51.27269 7.91883 20604 ft 431 kts 70°
2026-05-04 19:03 51.28329 7.96290 20848 ft 432 kts 70°
2026-05-04 19:03 51.29413 8.00795 20973 ft 434 kts 70°
2026-05-04 19:03 51.30496 8.05305 20987 ft 434 kts 70°
2026-05-04 19:03 51.31580 8.09819 20983 ft 434 kts 70°
2026-05-04 19:04 51.32635 8.14241 20975 ft 434 kts 70°
2026-05-04 19:04 51.33709 8.18762 20985 ft 436 kts 70°
2026-05-04 19:04 51.34794 8.23312 20983 ft 436 kts 69°
2026-05-04 19:04 51.36067 8.27640 20992 ft 436 kts 63°
2026-05-04 19:05 51.37461 8.31963 20980 ft 438 kts 64°
2026-05-04 19:05 51.38859 8.36322 21431 ft 442 kts 64°
2026-05-04 19:05 51.40134 8.40823 21930 ft 443 kts 71°
2026-05-04 19:05 51.40958 8.45592 22362 ft 445 kts 81°
2026-05-04 19:06 51.41292 8.50517 22791 ft 445 kts 90°
2026-05-04 19:06 51.41256 8.55516 23113 ft 451 kts 93°
2026-05-04 19:06 51.41193 8.60518 23364 ft 447 kts 93°
2026-05-04 19:06 51.41135 8.65520 23646 ft 451 kts 93°
2026-05-04 19:07 51.41113 8.70574 23957 ft 456 kts 89°
2026-05-04 19:07 51.41491 8.75588 24294 ft 462 kts 80°
2026-05-04 19:07 51.42373 8.80562 24650 ft 466 kts 70°
2026-05-04 19:07 51.43647 8.85366 24994 ft 469 kts 67°
2026-05-04 19:08 51.44959 8.90187 25345 ft 472 kts 67°
2026-05-04 19:08 51.46271 8.95038 25692 ft 475 kts 68°
2026-05-04 19:08 51.47322 9.00063 26008 ft 477 kts 79°
2026-05-04 19:08 51.47761 9.05275 26311 ft 477 kts 90°
2026-05-04 19:09 51.47594 9.10580 26616 ft 476 kts 101°
2026-05-04 19:09 51.46851 9.15759 26470 ft 479 kts 112°
2026-05-04 19:09 51.45502 9.20613 26218 ft 474 kts 124°
2026-05-04 19:09 51.43635 9.24937 25955 ft 468 kts 133°
2026-05-04 19:10 51.41586 9.28966 25714 ft 466 kts 133°
2026-05-04 19:10 51.39526 9.32953 25464 ft 463 kts 134°
2026-05-04 19:10 51.37455 9.36905 25134 ft 461 kts 134°
2026-05-04 19:10 51.35386 9.40818 24791 ft 459 kts 134°
2026-05-04 19:11 51.33330 9.44701 24438 ft 456 kts 134°
2026-05-04 19:11 51.31284 9.48572 24060 ft 454 kts 134°
2026-05-04 19:11 51.29277 9.52380 23719 ft 452 kts 133°
2026-05-04 19:11 51.27264 9.56195 23413 ft 449 kts 133°
2026-05-04 19:12 51.25250 9.60009 23134 ft 447 kts 133°
2026-05-04 19:12 51.21208 9.67514 22983 ft 443 kts 137°
2026-05-04 19:12 51.18910 9.70737 22983 ft 438 kts 147°
2026-05-04 19:13 51.16402 9.73486 22975 ft 437 kts 149°
2026-05-04 19:13 51.13885 9.76203 22983 ft 437 kts 149°
2026-05-04 19:13 51.11370 9.78922 22982 ft 437 kts 149°
2026-05-04 19:13 51.08845 9.81654 22983 ft 437 kts 149°
2026-05-04 19:14 51.06331 9.84376 22981 ft 437 kts 149°
2026-05-04 19:14 51.03848 9.87057 22986 ft 437 kts 149°
2026-05-04 19:14 51.01294 9.89805 22981 ft 438 kts 149°
2026-05-04 19:14 50.98772 9.92515 22981 ft 437 kts 149°
2026-05-04 19:15 50.96290 9.95182 22968 ft 437 kts 149°
2026-05-04 19:15 50.93736 9.97928 22965 ft 437 kts 149°
2026-05-04 19:15 50.91248 10.00597 22962 ft 437 kts 149°
2026-05-04 19:15 50.88728 10.03292 22948 ft 437 kts 149°
2026-05-04 19:16 50.86211 10.05976 22959 ft 437 kts 149°
2026-05-04 19:16 50.83681 10.08664 22960 ft 437 kts 149°
2026-05-04 19:16 50.81153 10.11346 22961 ft 437 kts 149°
2026-05-04 19:16 50.78627 10.14026 22965 ft 437 kts 149°
2026-05-04 19:17 50.76100 10.16707 22971 ft 437 kts 149°
2026-05-04 19:17 50.73580 10.19382 22976 ft 438 kts 149°
2026-05-04 19:17 50.71863 10.21204 22977 ft 438 kts 149°
2026-05-04 19:17 50.68529 10.24740 22157 ft 436 kts 149°
2026-05-04 19:18 50.66859 10.26506 21740 ft 432 kts 149°
2026-05-04 19:18 50.64387 10.29115 21119 ft 426 kts 149°
2026-05-04 19:18 50.61933 10.31698 20507 ft 421 kts 149°
2026-05-04 19:18 50.59511 10.34240 19913 ft 416 kts 149°
2026-05-04 19:19 50.57106 10.36758 19339 ft 412 kts 149°
2026-05-04 19:19 50.54728 10.39245 18778 ft 409 kts 149°
2026-05-04 19:19 50.52366 10.41722 18238 ft 406 kts 149°
2026-05-04 19:19 50.50019 10.44191 17653 ft 402 kts 149°
2026-05-04 19:20 50.47641 10.46418 17154 ft 395 kts 157°
2026-05-04 19:20 50.45088 10.47930 16958 ft 390 kts 167°
2026-05-04 19:20 50.42436 10.48809 16984 ft 390 kts 171°
2026-05-04 19:20 50.39771 10.49680 16978 ft 391 kts 170°
2026-05-04 19:21 50.37114 10.50627 16978 ft 391 kts 169°
2026-05-04 19:21 50.34508 10.51595 16981 ft 391 kts 169°
2026-05-04 19:21 50.31827 10.52598 16979 ft 391 kts 169°
2026-05-04 19:21 50.29182 10.53573 16975 ft 390 kts 169°
2026-05-04 19:22 50.26530 10.54528 16978 ft 390 kts 169°
2026-05-04 19:22 50.23913 10.55459 16976 ft 391 kts 169°
2026-05-04 19:22 50.21265 10.56390 16976 ft 390 kts 170°
2026-05-04 19:22 50.18615 10.57315 16974 ft 390 kts 170°
2026-05-04 19:23 50.15958 10.58244 16966 ft 391 kts 169°
2026-05-04 19:23 50.13306 10.59180 16971 ft 390 kts 170°
2026-05-04 19:23 50.10655 10.60112 16970 ft 390 kts 170°
2026-05-04 19:23 50.08007 10.61040 16820 ft 388 kts 170°
2026-05-04 19:24 50.05410 10.61952 16450 ft 380 kts 170°
2026-05-04 19:24 50.02846 10.62851 15857 ft 376 kts 170°
2026-05-04 19:24 50.00323 10.63734 14810 ft 370 kts 170°
2026-05-04 19:24 49.97805 10.64610 14206 ft 368 kts 170°
2026-05-04 19:25 49.95318 10.65477 13619 ft 362 kts 170°
2026-05-04 19:25 49.92883 10.66325 12675 ft 359 kts 170°
2026-05-04 19:25 49.90467 10.67168 11923 ft 352 kts 169°
2026-05-04 19:25 49.88113 10.67989 11537 ft 341 kts 169°
2026-05-04 19:26 49.85838 10.68779 11296 ft 330 kts 169°
2026-05-04 19:26 49.83632 10.69542 11096 ft 318 kts 169°
2026-05-04 19:26 49.81621 10.70723 10811 ft 315 kts 152°
2026-05-04 19:26 49.79989 10.72910 10691 ft 308 kts 131°
2026-05-04 19:27 49.78762 10.75564 10554 ft 298 kts 128°
2026-05-04 19:27 49.77599 10.78109 10283 ft 292 kts 129°
2026-05-04 19:27 49.76427 10.80649 9933 ft 289 kts 129°
2026-05-04 19:27 49.75255 10.83180 9566 ft 288 kts 129°
2026-05-04 19:28 49.74095 10.85688 9191 ft 286 kts 129°
2026-05-04 19:28 49.72954 10.88161 8837 ft 284 kts 128°
2026-05-04 19:28 49.71819 10.90626 8566 ft 279 kts 128°
2026-05-04 19:28 49.70703 10.93041 8310 ft 274 kts 128°
2026-05-04 19:29 49.69603 10.95420 8058 ft 269 kts 128°
2026-05-04 19:29 49.68538 10.97727 7946 ft 260 kts 128°
2026-05-04 19:29 49.67508 10.99956 7947 ft 259 kts 128°
2026-05-04 19:29 49.66465 11.02216 7947 ft 258 kts 128°
2026-05-04 19:30 49.65426 11.04470 7692 ft 257 kts 128°
2026-05-04 19:30 49.64414 11.06656 7399 ft 255 kts 128°
2026-05-04 19:30 49.63385 11.08869 7098 ft 253 kts 128°
2026-05-04 19:30 49.62358 11.11078 6802 ft 252 kts 127°
2026-05-04 19:31 49.61353 11.13242 6538 ft 248 kts 127°
2026-05-04 19:31 49.60390 11.15384 6165 ft 239 kts 123°
2026-05-04 19:31 49.59596 11.17636 5797 ft 239 kts 116°
2026-05-04 19:31 49.58979 11.20008 5505 ft 237 kts 109°
2026-05-04 19:32 49.58546 11.22444 5195 ft 235 kts 102°
2026-05-04 19:32 49.58285 11.24914 5018 ft 233 kts 99°
2026-05-04 19:32 49.58039 11.27391 5011 ft 235 kts 99°
2026-05-04 19:32 49.57785 11.29883 5009 ft 235 kts 99°
2026-05-04 19:33 49.57533 11.32376 5007 ft 236 kts 99°
2026-05-04 19:33 49.57281 11.34870 5011 ft 236 kts 99°
2026-05-04 19:33 49.57028 11.37343 5011 ft 236 kts 99°
2026-05-04 19:33 49.56768 11.39835 5009 ft 235 kts 101°
2026-05-04 19:34 49.56120 11.42104 4767 ft 233 kts 131°
2026-05-04 19:34 49.54820 11.43468 4477 ft 232 kts 163°
2026-05-04 19:34 49.53192 11.43557 4273 ft 234 kts 189°
2026-05-04 19:34 49.51598 11.42994 4096 ft 235 kts 193°
2026-05-04 19:35 49.50032 11.42355 4010 ft 231 kts 194°
2026-05-04 19:35 49.48540 11.41733 4009 ft 224 kts 194°
2026-05-04 19:35 49.47087 11.40915 3988 ft 222 kts 216°
2026-05-04 19:35 49.46231 11.39006 4009 ft 221 kts 259°
2026-05-04 19:36 49.46288 11.36672 4007 ft 220 kts 291°
2026-05-04 19:36 49.47079 11.34688 4019 ft 219 kts 307°
2026-05-04 19:36 49.47642 11.32548 3920 ft 217 kts 274°
2026-05-04 19:36 49.47660 11.30282 3685 ft 204 kts 276°
2026-05-04 19:37 49.47839 11.28165 3423 ft 195 kts 280°
2026-05-04 19:37 49.48042 11.26149 3177 ft 187 kts 281°
2026-05-04 19:37 49.48234 11.24234 2926 ft 178 kts 281°
2026-05-04 19:37 49.48418 11.22402 2716 ft 168 kts 282°
2026-05-04 19:38 49.48593 11.20646 2491 ft 161 kts 282°
2026-05-04 19:38 49.48761 11.18970 2281 ft 157 kts 282°
2026-05-04 19:38 49.48925 11.17324 2073 ft 154 kts 282°
2026-05-04 19:38 49.49087 11.15706 1874 ft 153 kts 282°
2026-05-04 19:39 49.49246 11.14100 1673 ft 151 kts 281°
2026-05-04 19:39 49.49405 11.12497 1466 ft 151 kts 280°
2026-05-04 19:39 49.49565 11.10896 1267 ft 152 kts 281°
2026-05-04 19:39 49.49722 11.09295 1064 ft 150 kts 280°
2026-05-04 19:40 49.49862 11.07907 1025 ft 99 kts 278°
2026-05-04 19:40 49.49922 11.07267 1024 ft 32 kts 278°
2026-05-04 19:40 49.49927 11.07041 1024 ft 14 kts 234°
2026-05-04 19:40 49.49830 11.07042 1021 ft 14 kts 158°
2026-05-04 19:41 49.49794 11.07065 1021 ft 0 kts 158°
2026-05-04 19:42 49.49793 11.07065 1021 ft 0 kts 158°
2026-05-04 19:42 49.49790 11.07067 1021 ft 2 kts 158°
2026-05-04 19:42 49.49770 11.07082 1021 ft 5 kts 151°
2026-05-04 19:42 49.49745 11.07129 1022 ft 7 kts 113°
2026-05-04 19:43 49.49735 11.07217 1022 ft 10 kts 98°
2026-05-04 19:43 49.49724 11.07329 1023 ft 11 kts 98°
2026-05-04 19:43 49.49712 11.07450 1024 ft 12 kts 98°
2026-05-04 19:43 49.49701 11.07565 1021 ft 11 kts 98°
2026-05-04 19:44 49.49697 11.07609 1025 ft 0 kts 98°
2026-05-04 19:45 49.49697 11.07615 1025 ft 2 kts 98°
2026-05-04 19:45 49.49693 11.07652 1022 ft 5 kts 98°
2026-05-04 19:46 49.49687 11.07703 1022 ft 5 kts 102°
2026-05-04 19:46 49.49670 11.07755 1025 ft 6 kts 135°
2026-05-04 19:46 49.49614 11.07759 1027 ft 10 kts 198°
2026-05-04 19:46 49.49553 11.07731 1022 ft 7 kts 188°
2026-05-04 19:47 49.49529 11.07726 1026 ft 3 kts 188°
2026-05-04 19:47 49.49525 11.07725 1026 ft 0 kts 189°